Wind_Speed
14 15 15 17 21 23 21 20 19 19 19 19 19 17 15 14 13 11 10 9 10 9
13 13 14 14 14 16 18 18 19 19 19 20 19 18 17 16 11 9 9 9 8 6
12 12 12 13 14 14 15 18 19 20 20 20 19 18 16 15 13 9 9 8 7 7
13 11 10 9 9 10 12 15 20 21 20 19 19 17 15 11 13 13 10 7 6 6
11 10 8 7 7 8 9 12 16 19 18 18 19 18 18 20 14 14 13 11 6 5
11 8 6 6 7 8 9 11 13 16 18 18 18 19 19 18 20 15 14 14 12 10
12 10 8 8 8 9 10 12 13 16 17 18 18 19 18 16 11 11 11 12 12 11
11 11 11 10 10 11 12 13 14 16 18 19 18 16 13 8 12 14 11 11 11 10
13 12 12 10 10 12 13 15 16 18 18 16 11 6 7 8 9 10 12 11 9 8
13 14 13 12 12 14 15 16 16 13 9 5 6 6 9 9 11 13 13 12 12 12
13 11 8 8 8 7 7 7 7 6 6 7 8 8 8 9 14 11 12 14 13 13
15 11 10 10 8 6 4 4 6 8 8 7 7 6 6 4 11 12 11 12 13 15
13 11 10 7 6 4 2 1 3 4 6 6 6 6 5 4 5 8 15 12 12 13
11 8 6 5 4 3 3 3 4 4 3 4 6 4 5 6 10 10 13 14 12 13
Wind_Direction
180 182 189 194 198 202 204 202 196 196 195 194 197 195 195 201 212 217 219 211 205 213
165 173 180 189 200 207 211 205 201 202 197 194 195 190 186 192 196 193 193 188 187 190
149 160 166 173 183 195 201 202 196 194 195 191 190 183 186 186 201 206 182 182 176 167
115 127 141 158 173 186 192 194 193 189 185 184 183 178 187 178 162 165 160 158 169 160
98 110 121 140 161 174 181 187 192 189 186 183 181 177 177 169 180 183 165 158 185 217
74 88 106 131 149 160 167 174 182 189 186 181 178 174 174 187 173 192 213 219 214 202
75 89 99 114 128 142 153 159 167 177 179 176 170 168 166 171 193 233 210 187 186 205
63 82 96 107 121 129 140 150 160 164 164 161 161 165 174 204 239 198 201 214 207 202
64 73 83 96 111 121 132 141 149 150 151 155 164 179 244 214 178 169 172 168 173 179
66 73 78 92 101 109 122 132 133 136 150 177 215 188 174 172 181 200 213 219 210 197
55 60 65 77 85 95 115 136 144 153 165 172 169 171 187 225 219 217 210 210 220 231
40 45 53 61 67 75 89 122 140 155 162 179 188 194 224 235 195 206 217 220 222 234
23 26 35 34 41 45 39 138 165 161 171 177 201 207 231 261 223 214 222 224 229 214
12 16 11 14 16 6 336 300 258 231 210 201 227 217 224 232 230 212 209 214 208 207
Height
742 746 751 756 760 764 768 771 776 779 784 790 794 798 802 805 810 811 814 816 818 822
743 747 751 755 760 764 767 772 776 780 783 788 791 795 799 804 807 812 815 816 819 821
745 749 752 756 760 763 767 771 774 779 783 787 792 794 798 801 805 811 814 817 819 821
748 751 754 757 760 763 766 769 773 777 781 785 789 792 797 802 806 812 814 817 821 822
752 754 756 759 762 764 767 770 773 777 781 785 789 793 797 802 804 811 815 817 821 823
756 758 760 762 763 765 767 770 774 778 782 786 790 794 798 801 805 810 814 816 819 822
760 762 763 765 765 766 769 772 775 779 783 788 792 796 800 804 807 809 812 815 817 820
766 765 764 768 769 768 770 773 777 781 785 790 794 798 802 805 807 809 813 815 817 819
770 769 769 771 773 771 772 775 778 783 787 791 795 799 801 804 806 809 812 815 817 819
776 776 776 778 777 776 776 778 780 784 789 792 795 798 801 803 806 808 811 813 815 817
780 781 782 780 779 781 782 782 782 785 788 792 794 797 800 802 803 806 809 811 814 816
783 784 783 782 783 784 787 788 786 786 787 791 795 797 799 801 801 805 807 810 812 816
786 787 785 787 786 788 791 791 791 790 789 790 793 795 797 799 799 802 806 809 811 811
793 793 790 788 788 789 791 792 793 792 789 788 790 791 794 798 798 799 803 807 807 809